Powrót do katalogu

CZ-4C DEB

AktywnyLEO
NORAD 44598·DEBRIS·🇨🇳 China

Wystrzelony Nov 20, 2013 z Taiyuan Satellite Launch Center

Loading…

Następne Przeloty (najbliższe 24 godziny)

TLE

ŚwieżeSource: Space-Track

Epoka: Sep 13, 2026, 13:37 UTC

1 44598U 13065H   26256.56788336 -.00000020  00000-0  45791-4 0  9995
2 44598 100.4187 203.3674 0140207 354.0274   5.9178 13.43673702545692

Śledź CZ-4C DEB w czasie rzeczywistym z AllMySat

Download on the App Store